contact:dominique.lefevre@mio.osupytheas.fr, maurice.libes@osupytheas.fr, didier.mallarino@osupytheas.fr
Project:EMSO http://www.emso-fr.org/EMSO-France
Depth: 2436.0 m
Title:EMSO Ligure Ouest : Data MII capteur AQUADOPP
Date,Latitude,Longitude,X_East,Y_North,Z_Up,Amplitude_X,Amplitude_Y,Amplitude_Z,Batterie,SoundSpeed,Heading,Pitch,Roll,Pressure,TIS,Speed,Direction
, degrees North, degrees East, m.s-1, m.s-1,m.s-1, 1, 1, 1, Volt, m.s-1, degree, degree, degree, dbar, degree_C, m.s-1, degree
2022-08-10T00:04:03,42.805,6.029,0.002,-0.017,-0.012,104.0,102.0,101.0,13.4,1505.2,327.4,-0.7,1.8,2470.973,13.28,0.017,173.3
2022-08-10T00:07:03,42.805,6.029,0.003,-0.036,-0.009,101.0,102.0,101.0,13.4,1505.2,327.0,-0.8,1.8,2470.94,13.28,0.036,175.2
2022-08-10T00:10:03,42.805,6.029,0.014,-0.006,-0.029,104.0,102.0,100.0,13.4,1505.2,324.7,-0.8,1.8,2470.928,13.28,0.015,113.2
2022-08-10T00:13:03,42.805,6.029,0.0,-0.01,-0.038,101.0,104.0,100.0,13.4,1505.2,332.1,-0.7,1.8,2470.92,13.28,0.01,180.0
2022-08-10T00:16:03,42.805,6.029,0.023,-0.024,-0.051,101.0,102.0,101.0,13.4,1505.2,318.7,-0.8,1.8,2470.915,13.28,0.033,136.2
2022-08-10T00:19:03,42.805,6.029,-0.001,-0.002,-0.021,102.0,101.0,102.0,13.4,1505.2,330.6,-0.7,1.8,2470.907,13.29,0.002,206.6
2022-08-10T00:22:03,42.805,6.029,-0.005,0.0,-0.03,101.0,102.0,100.0,13.4,1505.2,327.6,-0.8,1.8,2470.943,13.29,0.005,270.0
2022-08-10T00:25:03,42.805,6.029,-0.008,-0.01,-0.024,103.0,101.0,100.0,13.4,1505.2,330.3,-0.7,1.8,2470.879,13.29,0.012,218.7
2022-08-10T00:28:03,42.805,6.029,0.035,-0.012,-0.008,102.0,102.0,100.0,13.3,1505.2,322.4,-0.8,1.8,2470.936,13.29,0.037,108.9
2022-08-10T00:31:03,42.805,6.029,0.01,-0.021,-0.007,101.0,102.0,101.0,13.4,1505.2,320.6,-0.8,1.8,2470.93,13.29,0.023,154.5
2022-08-10T00:34:03,42.805,6.029,0.014,-0.02,-0.026,103.0,101.0,100.0,13.3,1505.2,324.8,-0.8,1.8,2470.892,13.29,0.024,145.0
2022-08-10T00:37:03,42.805,6.029,0.018,-0.039,-0.049,102.0,102.0,100.0,13.3,1505.2,329.5,-0.7,1.8,2470.896,13.29,0.042,155.2
2022-08-10T00:40:03,42.805,6.029,-0.016,-0.017,-0.056,102.0,101.0,100.0,13.3,1505.2,330.2,-0.7,1.8,2470.912,13.29,0.023,223.3
2022-08-10T00:43:03,42.805,6.029,-0.001,0.015,-0.033,101.0,102.0,100.0,13.3,1505.2,320.7,-0.8,1.8,2470.893,13.29,0.015,356.2
2022-08-10T00:46:03,42.805,6.029,-0.014,-0.01,-0.042,103.0,101.0,101.0,13.4,1505.2,322.9,-0.8,1.8,2470.897,13.29,0.017,234.5
2022-08-10T00:49:03,42.805,6.029,0.018,0.008,0.004,101.0,101.0,102.0,13.3,1505.2,325.5,-0.7,1.8,2470.926,13.29,0.019,66.0
2022-08-10T00:52:03,42.805,6.029,0.017,-0.032,-0.047,104.0,102.0,99.0,13.3,1505.2,329.6,-0.7,1.8,2470.923,13.29,0.036,152.0
2022-08-10T00:55:03,42.805,6.029,0.011,-0.005,-0.027,103.0,101.0,101.0,13.4,1505.2,321.1,-0.8,1.8,2470.921,13.29,0.012,114.4
2022-08-10T00:58:03,42.805,6.029,0.012,-0.033,-0.021,102.0,103.0,101.0,13.3,1505.2,329.0,-0.8,1.8,2470.928,13.29,0.035,160.0
2022-08-10T01:04:03,42.805,6.029,0.025,-0.037,-0.062,104.0,105.0,102.0,13.4,1505.2,326.9,-0.8,1.8,2470.983,13.28,0.044,146.0
2022-08-10T01:07:03,42.805,6.029,0.009,-0.025,-0.031,103.0,103.0,100.0,13.4,1505.2,322.9,-0.7,1.8,2470.937,13.28,0.026,160.2
2022-08-10T01:10:03,42.805,6.029,-0.005,-0.012,-0.006,102.0,102.0,100.0,13.4,1505.2,322.9,-0.8,1.8,2470.96,13.28,0.013,202.6
2022-08-10T01:13:03,42.805,6.029,-0.005,0.013,-0.001,102.0,102.0,100.0,13.4,1505.2,329.7,-0.7,1.8,2470.946,13.28,0.013,339.0
2022-08-10T01:16:03,42.805,6.029,0.009,-0.002,-0.051,101.0,102.0,101.0,13.4,1505.2,328.9,-0.8,1.8,2470.97,13.28,0.009,102.5
2022-08-10T01:19:03,42.805,6.029,-0.014,-0.01,-0.006,104.0,102.0,100.0,13.4,1505.2,331.8,-0.8,1.8,2470.907,13.29,0.017,234.5
2022-08-10T01:22:03,42.805,6.029,0.0,-0.005,-0.005,102.0,102.0,100.0,13.3,1505.2,325.6,-0.8,1.9,2470.965,13.29,0.005,180.0
2022-08-10T01:25:03,42.805,6.029,0.009,-0.009,-0.026,102.0,102.0,101.0,13.3,1505.2,326.6,-0.8,1.8,2470.93,13.29,0.012,135.0
2022-08-10T01:28:03,42.805,6.029,0.017,-0.022,-0.055,103.0,102.0,101.0,13.4,1505.2,323.3,-0.8,1.8,2470.914,13.29,0.027,142.3
2022-08-10T01:31:03,42.805,6.029,0.0,-0.025,-0.013,102.0,103.0,101.0,13.3,1505.2,324.5,-0.8,1.8,2470.941,13.29,0.025,180.0
2022-08-10T01:34:03,42.805,6.029,-0.003,0.013,-0.032,103.0,102.0,101.0,13.3,1505.2,319.6,-0.8,1.8,2470.912,13.29,0.013,347.0
2022-08-10T01:37:03,42.805,6.029,0.003,-0.023,-0.043,103.0,102.0,102.0,13.4,1505.2,320.1,-0.8,1.8,2470.92,13.29,0.023,172.6
2022-08-10T01:40:03,42.805,6.029,0.006,-0.011,-0.037,102.0,104.0,101.0,13.3,1505.2,325.1,-0.7,1.9,2470.894,13.29,0.012,151.4
2022-08-10T01:43:03,42.805,6.029,0.009,0.013,-0.004,102.0,103.0,101.0,13.4,1505.2,319.5,-0.8,1.8,2470.906,13.29,0.015,34.7
2022-08-10T01:46:03,42.805,6.029,-0.009,-0.005,-0.024,104.0,102.0,102.0,13.4,1505.2,331.9,-0.8,1.8,2470.924,13.29,0.01,240.9
2022-08-10T01:49:03,42.805,6.029,0.009,-0.03,-0.032,103.0,103.0,100.0,13.4,1505.2,328.1,-0.8,1.8,2470.942,13.29,0.031,163.3
2022-08-10T01:52:03,42.805,6.029,-0.009,-0.038,-0.023,102.0,103.0,101.0,13.4,1505.2,333.6,-0.7,1.8,2470.939,13.29,0.039,193.3
2022-08-10T01:55:03,42.805,6.029,0.009,-0.013,-0.03,102.0,102.0,101.0,13.4,1505.2,321.1,-0.8,1.8,2470.916,13.29,0.015,145.3
2022-08-10T01:58:03,42.805,6.029,0.034,-0.022,0.0,103.0,103.0,100.0,13.4,1505.2,328.1,-0.7,1.8,2470.934,13.29,0.04,122.9
2022-08-10T02:04:03,42.805,6.029,0.018,0.011,-0.005,102.0,103.0,99.0,13.4,1505.2,328.5,-0.8,1.8,2470.971,13.28,0.021,58.6
2022-08-10T02:07:03,42.805,6.029,0.03,-0.031,-0.058,104.0,101.0,99.0,13.4,1505.2,328.6,-0.8,1.8,2470.964,13.28,0.043,135.9
2022-08-10T02:10:03,42.805,6.029,0.008,-0.015,-0.009,102.0,102.0,100.0,13.4,1505.2,325.9,-0.8,1.8,2470.943,13.28,0.017,151.9
2022-08-10T02:13:03,42.805,6.029,-0.002,-0.031,-0.043,102.0,102.0,101.0,13.3,1505.2,328.4,-0.7,1.8,2470.982,13.28,0.031,183.7
2022-08-10T02:16:03,42.805,6.029,0.008,-0.013,-0.008,102.0,102.0,101.0,13.4,1505.2,323.3,-0.7,1.8,2470.973,13.28,0.015,148.4
2022-08-10T02:19:03,42.805,6.029,0.015,-0.01,-0.022,102.0,101.0,100.0,13.3,1505.2,320.7,-0.7,1.8,2470.98,13.29,0.018,123.7
2022-08-10T02:22:03,42.805,6.029,0.022,-0.027,-0.026,102.0,102.0,101.0,13.4,1505.2,324.2,-0.7,1.8,2470.951,13.29,0.034,140.8
2022-08-10T02:25:03,42.805,6.029,-0.021,-0.006,-0.002,102.0,103.0,101.0,13.3,1505.2,328.5,-0.8,1.8,2470.921,13.29,0.021,254.1
2022-08-10T02:28:03,42.805,6.029,0.024,-0.004,-0.017,103.0,102.0,101.0,13.4,1505.2,319.2,-0.7,1.8,2470.962,13.29,0.024,99.5
2022-08-10T02:31:03,42.805,6.029,0.0,-0.021,-0.036,103.0,105.0,100.0,13.4,1505.2,326.0,-0.8,1.8,2470.964,13.29,0.021,180.0
2022-08-10T02:34:03,42.805,6.029,0.016,-0.014,-0.003,103.0,102.0,101.0,13.4,1505.2,323.0,-0.8,1.8,2470.921,13.29,0.021,131.2
2022-08-10T02:37:03,42.805,6.029,0.009,-0.022,-0.016,102.0,103.0,101.0,13.4,1505.2,333.6,-0.8,1.8,2470.967,13.29,0.023,157.8
2022-08-10T02:40:03,42.805,6.029,0.003,-0.015,-0.016,101.0,102.0,101.0,13.4,1505.2,331.8,-0.7,1.8,2470.96,13.29,0.015,168.7
2022-08-10T02:43:03,42.805,6.029,0.019,-0.021,-0.042,102.0,102.0,100.0,13.4,1505.2,328.1,-0.8,1.8,2470.925,13.29,0.028,137.9
2022-08-10T02:46:03,42.805,6.029,0.016,-0.013,-0.02,102.0,102.0,101.0,13.4,1505.2,333.4,-0.7,1.8,2470.967,13.29,0.02,129.1
2022-08-10T02:49:03,42.805,6.029,0.011,-0.007,-0.045,102.0,103.0,101.0,13.3,1505.2,323.7,-0.7,1.8,2470.942,13.29,0.013,122.5
2022-08-10T02:52:03,42.805,6.029,-0.017,-0.01,-0.032,102.0,102.0,101.0,13.4,1505.2,322.6,-0.8,1.8,2470.996,13.29,0.019,239.5
2022-08-10T02:55:03,42.805,6.029,0.004,-0.015,-0.013,102.0,103.0,102.0,13.4,1505.2,332.0,-0.8,1.8,2470.932,13.29,0.015,165.1
2022-08-10T02:58:03,42.805,6.029,-0.002,-0.02,-0.091,103.0,101.0,99.0,13.4,1505.2,327.0,-0.8,1.8,2470.937,13.29,0.02,185.7
2022-08-10T03:04:03,42.805,6.029,-0.004,-0.001,-0.017,104.0,100.0,102.0,13.4,1505.2,329.4,-0.8,1.8,2470.97,13.28,0.004,256.0
2022-08-10T03:07:03,42.805,6.029,-0.017,0.001,-0.03,101.0,101.0,102.0,13.3,1505.2,327.2,-0.8,1.8,2470.999,13.28,0.017,273.4
2022-08-10T03:10:03,42.805,6.029,0.003,-0.021,-0.02,103.0,101.0,101.0,13.4,1505.2,333.1,-0.7,1.8,2471.003,13.28,0.021,171.9
2022-08-10T03:13:03,42.805,6.029,0.002,-0.023,-0.036,103.0,102.0,100.0,13.4,1505.2,331.2,-0.7,1.8,2470.998,13.28,0.023,175.0
2022-08-10T03:16:03,42.805,6.029,0.006,-0.019,-0.012,102.0,101.0,101.0,13.4,1505.2,323.3,-0.7,1.8,2470.962,13.29,0.019,162.5
2022-08-10T03:19:03,42.805,6.029,0.026,-0.027,-0.012,101.0,103.0,100.0,13.3,1505.2,322.1,-0.8,1.8,2470.966,13.29,0.037,136.1
2022-08-10T03:22:03,42.805,6.029,-0.001,-0.029,-0.06,103.0,100.0,101.0,13.4,1505.2,324.1,-0.7,1.8,2470.984,13.29,0.029,182.0
2022-08-10T03:25:03,42.805,6.029,-0.001,-0.009,-0.04,104.0,102.0,100.0,13.4,1505.2,333.4,-0.7,1.8,2470.96,13.29,0.009,186.3
2022-08-10T03:28:03,42.805,6.029,0.004,-0.018,-0.027,102.0,101.0,102.0,13.4,1505.2,319.9,-0.8,1.8,2470.977,13.29,0.018,167.5
2022-08-10T03:31:03,42.805,6.029,-0.004,0.002,0.017,101.0,103.0,100.0,13.4,1505.2,323.4,-0.7,1.8,2470.97,13.29,0.004,296.6
2022-08-10T03:34:03,42.805,6.029,0.028,-0.015,-0.023,102.0,103.0,100.0,13.4,1505.2,326.7,-0.7,1.8,2470.97,13.29,0.031,118.2
2022-08-10T03:37:03,42.805,6.029,0.028,-0.008,0.005,101.0,101.0,101.0,13.4,1505.2,328.9,-0.8,1.8,2470.969,13.29,0.029,105.9
2022-08-10T03:40:03,42.805,6.029,0.005,0.002,-0.009,101.0,103.0,101.0,13.4,1505.2,320.2,-0.7,1.8,2471.001,13.29,0.005,68.2
2022-08-10T03:43:03,42.805,6.029,0.028,-0.015,-0.008,102.0,101.0,101.0,13.4,1505.2,329.3,-0.8,1.8,2471.002,13.29,0.031,118.2
2022-08-10T03:46:03,42.805,6.029,0.009,-0.022,-0.054,101.0,102.0,100.0,13.4,1505.2,324.7,-0.8,1.8,2470.953,13.29,0.023,157.8
2022-08-10T03:49:03,42.805,6.029,-0.004,0.005,0.014,103.0,101.0,100.0,13.3,1505.2,327.2,-0.8,1.8,2470.978,13.29,0.006,321.3
2022-08-10T03:52:03,42.805,6.029,0.014,-0.006,0.005,102.0,102.0,100.0,13.4,1505.2,322.2,-0.7,1.8,2470.989,13.29,0.015,113.2
2022-08-10T03:55:03,42.805,6.029,0.012,-0.005,-0.016,102.0,101.0,100.0,13.3,1505.2,327.1,-0.8,1.8,2471.003,13.29,0.013,112.6
2022-08-10T03:58:03,42.805,6.029,0.012,-0.019,-0.028,101.0,102.0,101.0,13.4,1505.2,331.8,-0.8,1.8,2470.992,13.29,0.022,147.7
2022-08-10T04:04:03,42.805,6.029,0.018,-0.013,-0.029,102.0,102.0,100.0,13.4,1505.2,326.4,-0.8,1.8,2470.997,13.28,0.022,125.8
2022-08-10T04:07:03,42.805,6.029,-0.004,-0.006,0.016,102.0,102.0,100.0,13.3,1505.2,326.4,-0.8,1.8,2471.012,13.28,0.007,213.7
2022-08-10T04:10:03,42.805,6.029,-0.014,-0.006,-0.052,102.0,102.0,100.0,13.4,1505.2,330.6,-0.7,1.8,2471.01,13.28,0.015,246.8
2022-08-10T04:13:03,42.805,6.029,-0.023,0.0,-0.016,102.0,101.0,101.0,13.3,1505.2,331.9,-0.7,1.8,2471.028,13.28,0.023,270.0
2022-08-10T04:16:03,42.805,6.029,0.011,0.0,-0.045,103.0,102.0,101.0,13.3,1505.2,322.8,-0.8,1.8,2471.038,13.28,0.011,90.0
2022-08-10T04:19:03,42.805,6.029,0.027,-0.033,-0.048,102.0,102.0,100.0,13.3,1505.2,329.6,-0.8,1.8,2471.006,13.29,0.042,140.7
2022-08-10T04:22:03,42.805,6.029,0.036,-0.025,-0.035,101.0,101.0,101.0,13.3,1505.2,320.0,-0.8,1.8,2471.01,13.29,0.043,124.8
2022-08-10T04:25:03,42.805,6.029,0.0,-0.025,-0.017,102.0,103.0,100.0,13.4,1505.2,324.7,-0.8,1.8,2470.966,13.29,0.025,180.0
2022-08-10T04:28:03,42.805,6.029,0.001,0.0,0.014,102.0,102.0,101.0,13.3,1505.2,323.9,-0.7,1.8,2471.004,13.29,0.001,90.0
2022-08-10T04:31:03,42.805,6.029,0.014,-0.002,-0.047,102.0,101.0,100.0,13.4,1505.2,328.2,-0.7,1.8,2470.989,13.29,0.014,98.1
2022-08-10T04:34:03,42.805,6.029,0.001,-0.015,-0.033,102.0,102.0,100.0,13.4,1505.2,328.4,-0.7,1.8,2471.001,13.29,0.015,176.2
2022-08-10T04:37:03,42.805,6.029,0.007,-0.019,-0.031,102.0,102.0,101.0,13.4,1505.2,326.0,-0.7,1.8,2471.002,13.29,0.02,159.8
2022-08-10T04:40:03,42.805,6.029,0.023,-0.019,0.001,103.0,102.0,100.0,13.3,1505.2,327.8,-0.8,1.8,2471.022,13.29,0.029,129.6
2022-08-10T04:43:03,42.805,6.029,-0.002,-0.007,-0.033,103.0,103.0,102.0,13.4,1505.2,328.1,-0.8,1.8,2470.991,13.29,0.007,195.9
2022-08-10T04:46:03,42.805,6.029,0.03,-0.029,-0.043,104.0,101.0,101.0,13.4,1505.2,329.5,-0.7,1.8,2471.023,13.29,0.041,134.0
2022-08-10T04:49:03,42.805,6.029,0.014,-0.022,-0.033,102.0,102.0,100.0,13.3,1505.2,330.3,-0.8,1.8,2471.006,13.29,0.026,147.5
2022-08-10T04:52:03,42.805,6.029,0.02,-0.018,-0.017,101.0,102.0,102.0,13.4,1505.2,329.6,-0.8,1.8,2470.989,13.29,0.026,132.0
2022-08-10T04:55:03,42.805,6.029,0.005,-0.013,-0.017,102.0,102.0,101.0,13.4,1505.2,333.9,-0.8,1.8,2471.065,13.29,0.013,159.0
2022-08-10T04:58:03,42.805,6.029,0.017,-0.034,-0.051,103.0,101.0,100.0,13.4,1505.2,323.3,-0.8,1.8,2470.979,13.29,0.038,153.4
2022-08-10T05:04:03,42.805,6.029,0.006,-0.016,-0.012,102.0,102.0,101.0,13.3,1505.2,325.5,-0.8,1.8,2471.033,13.28,0.017,159.4
2022-08-10T05:07:03,42.805,6.029,0.021,-0.028,-0.023,103.0,102.0,100.0,13.4,1505.2,329.6,-0.7,1.8,2471.079,13.28,0.035,143.1
2022-08-10T05:10:03,42.805,6.029,-0.013,-0.008,-0.017,103.0,101.0,101.0,13.3,1505.2,328.4,-0.8,1.8,2471.048,13.28,0.015,238.4
2022-08-10T05:13:03,42.805,6.029,0.001,-0.01,0.002,103.0,102.0,100.0,13.3,1505.2,318.8,-0.7,1.8,2471.041,13.28,0.01,174.3
2022-08-10T05:16:03,42.805,6.029,0.004,-0.014,-0.018,102.0,102.0,101.0,13.4,1505.2,322.6,-0.7,1.8,2471.027,13.28,0.014,164.1
2022-08-10T05:19:03,42.805,6.029,0.006,-0.001,-0.001,102.0,101.0,100.0,13.3,1505.2,324.9,-0.7,1.8,2471.004,13.28,0.006,99.5
2022-08-10T05:22:03,42.805,6.029,0.031,-0.024,-0.025,102.0,101.0,101.0,13.3,1505.2,332.1,-0.8,1.8,2471.022,13.29,0.039,127.7
2022-08-10T05:25:03,42.805,6.029,0.009,-0.011,-0.054,102.0,102.0,100.0,13.3,1505.2,319.6,-0.7,1.8,2471.016,13.29,0.014,140.7
2022-08-10T05:28:03,42.805,6.029,0.028,-0.015,-0.003,104.0,101.0,100.0,13.4,1505.2,332.3,-0.8,1.8,2470.995,13.29,0.031,118.2
2022-08-10T05:31:03,42.805,6.029,0.035,-0.027,-0.009,102.0,101.0,100.0,13.4,1505.2,333.9,-0.7,1.8,2470.988,13.29,0.044,127.7
2022-08-10T05:34:03,42.805,6.029,0.001,-0.016,-0.008,102.0,101.0,101.0,13.3,1505.2,331.2,-0.8,1.8,2470.974,13.29,0.016,176.4
2022-08-10T05:37:03,42.805,6.029,0.008,0.0,0.027,102.0,102.0,101.0,13.4,1505.2,323.1,-0.8,1.8,2471.001,13.29,0.008,90.0
2022-08-10T05:40:03,42.805,6.029,0.027,-0.019,0.001,102.0,102.0,101.0,13.3,1505.2,321.8,-0.8,1.8,2471.02,13.29,0.033,125.1
2022-08-10T05:43:03,42.805,6.029,-0.009,-0.019,-0.028,102.0,101.0,100.0,13.3,1505.2,333.1,-0.8,1.8,2471.041,13.29,0.021,205.3
2022-08-10T05:46:03,42.805,6.029,0.011,-0.011,-0.019,103.0,101.0,102.0,13.4,1505.2,325.8,-0.8,1.8,2471.009,13.29,0.015,135.0
2022-08-10T05:49:03,42.805,6.029,0.007,-0.008,-0.02,101.0,102.0,99.0,13.4,1505.2,323.9,-0.7,1.8,2470.979,13.29,0.01,138.8
2022-08-10T05:52:03,42.805,6.029,0.001,-0.015,-0.038,102.0,100.0,101.0,13.4,1505.2,323.8,-0.8,1.8,2470.996,13.29,0.015,176.2
2022-08-10T05:55:03,42.805,6.029,0.02,-0.004,-0.01,102.0,102.0,100.0,13.4,1505.2,320.8,-0.8,1.8,2470.999,13.29,0.02,101.3
2022-08-10T05:58:03,42.805,6.029,0.009,-0.011,-0.007,102.0,103.0,101.0,13.3,1505.2,331.9,-0.8,1.9,2471.026,13.29,0.014,140.7
2022-08-10T06:01:03,42.805,6.029,0.0,-0.016,-0.046,101.0,102.0,100.0,13.4,1505.2,328.1,-0.8,1.8,2471.039,13.29,0.016,180.0
2022-08-10T06:04:03,42.805,6.029,-0.012,-0.036,-0.041,102.0,103.0,100.0,13.3,1505.2,323.0,-0.8,1.8,2471.02,13.29,0.037,198.4
2022-08-10T06:07:03,42.805,6.029,0.019,-0.044,-0.024,102.0,102.0,99.0,13.4,1505.2,330.4,-0.8,1.8,2471.044,13.29,0.047,156.6
2022-08-10T06:10:03,42.805,6.029,-0.006,-0.023,-0.064,102.0,102.0,101.0,13.4,1505.2,329.3,-0.8,1.8,2471.028,13.29,0.023,194.6
2022-08-10T06:13:03,42.805,6.029,0.007,-0.01,-0.036,102.0,101.0,100.0,13.3,1505.2,333.4,-0.8,1.8,2470.992,13.29,0.012,145.0
2022-08-10T06:16:03,42.805,6.029,0.001,-0.005,-0.017,101.0,102.0,100.0,13.4,1505.2,332.3,-0.8,1.8,2470.991,13.29,0.005,168.7
2022-08-10T06:19:03,42.805,6.029,0.009,-0.014,-0.037,103.0,101.0,100.0,13.4,1505.2,323.7,-0.8,1.8,2470.95,13.29,0.016,147.3
2022-08-10T06:22:03,42.805,6.029,-0.003,-0.01,-0.034,103.0,100.0,100.0,13.4,1505.2,326.7,-0.7,1.8,2470.993,13.29,0.01,196.7
2022-08-10T06:25:03,42.805,6.029,-0.002,-0.015,-0.035,102.0,103.0,101.0,13.4,1505.2,321.3,-0.8,1.8,2470.993,13.29,0.015,187.6
2022-08-10T06:28:03,42.805,6.029,0.002,-0.036,-0.056,100.0,101.0,100.0,13.4,1505.2,328.0,-0.7,1.8,2470.991,13.29,0.036,176.8
2022-08-10T06:31:03,42.805,6.029,0.024,-0.012,0.006,101.0,102.0,101.0,13.4,1505.2,326.4,-0.8,1.8,2471.004,13.29,0.026,116.6
2022-08-10T06:34:03,42.805,6.029,0.02,-0.028,-0.034,102.0,102.0,101.0,13.4,1505.2,324.8,-0.8,1.8,2470.994,13.29,0.034,144.5
2022-08-10T06:37:03,42.805,6.029,-0.007,-0.009,-0.01,102.0,102.0,101.0,13.4,1505.2,328.1,-0.8,1.9,2471.001,13.29,0.011,217.9
2022-08-10T06:40:03,42.805,6.029,-0.005,0.007,0.003,102.0,102.0,100.0,13.4,1505.2,330.1,-0.8,1.8,2470.982,13.29,0.008,324.5
2022-08-10T06:43:03,42.805,6.029,0.027,0.0,-0.017,102.0,101.0,100.0,13.4,1505.2,324.0,-0.8,1.8,2470.978,13.29,0.026,90.0
2022-08-10T06:46:03,42.805,6.029,0.003,-0.008,-0.026,102.0,101.0,102.0,13.4,1505.2,325.0,-0.8,1.8,2471.005,13.29,0.008,159.4
2022-08-10T06:49:03,42.805,6.029,0.001,-0.026,-0.05,103.0,101.0,100.0,13.3,1505.2,331.5,-0.7,1.8,2471.007,13.29,0.026,177.8
2022-08-10T06:52:03,42.805,6.029,0.001,-0.017,-0.025,102.0,102.0,101.0,13.4,1505.2,326.8,-0.8,1.9,2471.0,13.29,0.017,176.6
2022-08-10T06:55:03,42.805,6.029,0.027,0.009,0.004,102.0,102.0,99.0,13.4,1505.2,328.9,-0.8,1.8,2470.983,13.29,0.028,71.6
2022-08-10T06:58:03,42.805,6.029,-0.005,-0.026,-0.03,101.0,101.0,101.0,13.3,1505.2,327.6,-0.7,1.8,2470.989,13.29,0.026,190.9
2022-08-10T07:04:03,42.805,6.029,-0.015,-0.002,-0.01,102.0,102.0,101.0,13.4,1505.2,318.9,-0.8,1.8,2471.043,13.28,0.015,262.4
2022-08-10T07:07:03,42.805,6.029,-0.008,-0.013,-0.028,103.0,102.0,100.0,13.4,1505.2,321.5,-0.8,1.8,2471.03,13.28,0.015,211.6
2022-08-10T07:10:03,42.805,6.029,-0.008,-0.02,-0.044,101.0,102.0,101.0,13.4,1505.2,332.6,-0.8,1.8,2471.025,13.28,0.021,201.8
2022-08-10T07:13:03,42.805,6.029,-0.007,-0.022,-0.021,103.0,102.0,101.0,13.4,1505.2,322.6,-0.7,1.8,2471.037,13.28,0.023,197.6
2022-08-10T07:16:03,42.805,6.029,0.001,-0.018,-0.033,103.0,103.0,100.0,13.3,1505.2,326.4,-0.8,1.8,2470.981,13.28,0.018,176.8
2022-08-10T07:19:03,42.805,6.029,-0.009,-0.023,-0.06,102.0,102.0,103.0,13.4,1505.2,328.1,-0.8,1.8,2471.017,13.28,0.024,201.4
2022-08-10T07:22:03,42.805,6.029,-0.002,-0.01,-0.045,102.0,102.0,100.0,13.4,1505.2,325.8,-0.8,1.8,2470.994,13.29,0.01,191.3
2022-08-10T07:25:03,42.805,6.029,0.022,-0.021,-0.05,103.0,102.0,101.0,13.4,1505.2,327.8,-0.8,1.8,2470.996,13.29,0.03,133.7
2022-08-10T07:28:03,42.805,6.029,0.006,-0.027,-0.043,103.0,103.0,101.0,13.4,1505.2,324.5,-0.7,1.8,2471.002,13.29,0.027,167.5
2022-08-10T07:31:03,42.805,6.029,-0.006,-0.01,-0.052,103.0,103.0,101.0,13.3,1505.2,329.4,-0.8,1.8,2470.983,13.29,0.011,211.0
2022-08-10T07:34:03,42.805,6.029,-0.006,-0.036,-0.038,102.0,103.0,102.0,13.4,1505.2,328.4,-0.7,1.8,2471.017,13.29,0.036,189.5
2022-08-10T07:37:03,42.805,6.029,-0.004,-0.025,-0.052,103.0,103.0,102.0,13.3,1505.2,325.6,-0.7,1.8,2470.994,13.29,0.025,189.1
2022-08-10T07:40:03,42.805,6.029,-0.018,-0.027,-0.073,102.0,102.0,101.0,13.3,1505.2,329.4,-0.8,1.8,2470.968,13.29,0.032,213.7
2022-08-10T07:43:03,42.805,6.029,0.006,-0.02,-0.033,102.0,103.0,101.0,13.4,1505.2,327.2,-0.8,1.8,2470.974,13.29,0.02,163.3
2022-08-10T07:46:03,42.805,6.029,0.01,-0.028,-0.022,103.0,102.0,101.0,13.4,1505.2,329.8,-0.8,1.8,2470.986,13.29,0.029,160.4
2022-08-10T07:49:03,42.805,6.029,0.014,0.001,-0.005,103.0,103.0,101.0,13.3,1505.2,328.9,-0.8,1.8,2470.939,13.29,0.014,85.9
2022-08-10T07:52:03,42.805,6.029,-0.022,-0.012,-0.064,102.0,102.0,101.0,13.3,1505.2,330.9,-0.8,1.9,2470.923,13.29,0.025,241.4
2022-08-10T07:55:03,42.805,6.029,-0.012,0.003,-0.01,102.0,103.0,100.0,13.4,1505.2,332.6,-0.8,1.8,2470.957,13.29,0.012,284.0
2022-08-10T07:58:03,42.805,6.029,-0.003,-0.005,-0.026,102.0,102.0,101.0,13.4,1505.2,330.7,-0.8,1.8,2470.949,13.29,0.005,211.0
2022-08-10T08:04:03,42.805,6.029,-0.004,-0.011,-0.03,102.0,102.0,101.0,13.3,1505.2,322.6,-0.8,1.8,2470.984,13.28,0.011,200.0
2022-08-10T08:07:03,42.805,6.029,0.009,-0.009,-0.017,103.0,102.0,101.0,13.4,1505.2,328.8,-0.8,1.8,2470.966,13.28,0.012,135.0
2022-08-10T08:10:03,42.805,6.029,-0.018,-0.026,-0.03,103.0,103.0,100.0,13.3,1505.2,326.4,-0.7,1.8,2470.939,13.28,0.031,214.7
2022-08-10T08:13:03,42.805,6.029,-0.009,-0.016,-0.028,103.0,102.0,101.0,13.3,1505.2,324.2,-0.8,1.8,2470.951,13.28,0.018,209.4
2022-08-10T08:16:03,42.805,6.029,0.005,-0.022,-0.022,102.0,101.0,100.0,13.4,1505.2,328.5,-0.8,1.8,2470.956,13.28,0.022,167.2
2022-08-10T08:19:03,42.805,6.029,0.019,-0.02,-0.015,102.0,102.0,102.0,13.4,1505.2,318.0,-0.8,1.8,2470.946,13.28,0.027,136.5
2022-08-10T08:22:03,42.805,6.029,0.011,-0.001,-0.012,104.0,101.0,101.0,13.4,1505.2,329.5,-0.8,1.8,2470.99,13.29,0.011,95.2
2022-08-10T08:25:03,42.805,6.029,0.0,-0.003,-0.032,103.0,102.0,101.0,13.4,1505.2,332.6,-0.7,1.8,2470.977,13.29,0.003,180.0
2022-08-10T08:28:03,42.805,6.029,0.001,-0.001,-0.02,103.0,102.0,101.0,13.4,1505.2,324.1,-0.8,1.8,2470.967,13.29,0.001,135.0
2022-08-10T08:31:03,42.805,6.029,-0.027,0.013,0.0,102.0,103.0,102.0,13.4,1505.2,330.3,-0.8,1.8,2470.947,13.29,0.029,295.7
2022-08-10T08:34:03,42.805,6.029,-0.016,-0.005,-0.022,102.0,102.0,101.0,13.4,1505.2,333.6,-0.8,1.8,2470.919,13.29,0.016,252.6
2022-08-10T08:37:03,42.805,6.029,-0.017,-0.008,-0.034,101.0,104.0,101.0,13.4,1505.2,321.4,-0.8,1.8,2470.928,13.29,0.018,244.8
2022-08-10T08:40:03,42.805,6.029,-0.004,-0.02,-0.028,102.0,102.0,102.0,13.3,1505.2,318.9,-0.8,1.8,2470.959,13.29,0.02,191.3
2022-08-10T08:43:03,42.805,6.029,0.003,-0.013,-0.004,102.0,102.0,101.0,13.4,1505.2,320.9,-0.8,1.8,2470.96,13.29,0.013,167.0
2022-08-10T08:46:03,42.805,6.029,-0.008,-0.008,-0.031,103.0,101.0,101.0,13.4,1505.2,332.0,-0.8,1.8,2470.916,13.29,0.011,225.0
2022-08-10T08:49:03,42.805,6.029,-0.011,-0.011,-0.041,102.0,102.0,102.0,13.4,1505.2,324.5,-0.8,1.8,2470.936,13.29,0.015,225.0
2022-08-10T08:52:03,42.805,6.029,0.005,-0.025,-0.007,102.0,103.0,100.0,13.3,1505.2,325.1,-0.8,1.8,2470.925,13.29,0.025,168.7
2022-08-10T08:55:03,42.805,6.029,0.006,-0.017,-0.021,102.0,101.0,101.0,13.4,1505.2,325.8,-0.8,1.8,2470.952,13.29,0.018,160.6
2022-08-10T08:58:03,42.805,6.029,-0.007,-0.008,-0.033,102.0,102.0,101.0,13.4,1505.2,321.4,-0.8,1.8,2470.892,13.29,0.01,221.2
2022-08-10T09:04:03,42.805,6.029,-0.01,-0.034,-0.027,103.0,102.0,101.0,13.4,1505.2,321.6,-0.8,1.8,2470.944,13.28,0.035,196.4
2022-08-10T09:07:03,42.805,6.029,-0.005,-0.01,-0.048,102.0,103.0,101.0,13.4,1505.2,328.7,-0.8,1.8,2470.991,13.28,0.011,206.6
2022-08-10T09:10:03,42.805,6.029,-0.008,-0.002,0.0,102.0,102.0,101.0,13.4,1505.2,325.4,-0.7,1.8,2470.986,13.28,0.008,256.0
2022-08-10T09:13:03,42.805,6.029,0.005,-0.007,-0.011,103.0,104.0,101.0,13.3,1505.2,323.3,-0.8,1.8,2470.915,13.28,0.008,144.5
2022-08-10T09:16:03,42.805,6.029,0.012,-0.011,-0.016,103.0,103.0,100.0,13.3,1505.2,320.7,-0.8,1.9,2470.974,13.29,0.016,132.5
2022-08-10T09:19:03,42.805,6.029,-0.009,-0.009,-0.054,102.0,103.0,101.0,13.4,1505.2,328.1,-0.8,1.8,2470.913,13.29,0.012,225.0
2022-08-10T09:22:03,42.805,6.029,0.009,-0.014,-0.008,102.0,102.0,102.0,13.3,1505.2,330.7,-0.8,1.8,2470.91,13.29,0.016,147.3
2022-08-10T09:25:03,42.805,6.029,0.009,-0.007,0.0,102.0,102.0,100.0,13.4,1505.2,323.9,-0.8,1.8,2470.908,13.29,0.011,127.9
2022-08-10T09:28:03,42.805,6.029,-0.003,-0.005,-0.014,102.0,102.0,101.0,13.4,1505.2,329.2,-0.8,1.9,2470.902,13.29,0.005,211.0
2022-08-10T09:31:03,42.805,6.029,0.015,0.007,0.006,100.0,101.0,102.0,13.4,1505.2,323.6,-0.8,1.8,2470.907,13.29,0.016,65.0
2022-08-10T09:34:03,42.805,6.029,-0.01,-0.018,-0.036,102.0,103.0,100.0,13.4,1505.2,330.6,-0.8,1.8,2470.905,13.29,0.02,209.1
2022-08-10T09:37:03,42.805,6.029,0.004,-0.02,-0.047,102.0,102.0,100.0,13.4,1505.2,322.7,-0.8,1.8,2470.94,13.29,0.02,168.7
2022-08-10T09:40:03,42.805,6.029,0.013,0.0,-0.015,101.0,103.0,101.0,13.4,1505.2,321.4,-0.8,1.8,2470.894,13.29,0.013,90.0
2022-08-10T09:43:03,42.805,6.029,0.018,-0.007,-0.026,103.0,101.0,99.0,13.4,1505.2,331.5,-0.8,1.8,2470.915,13.29,0.019,111.2
2022-08-10T09:46:03,42.805,6.029,-0.011,-0.015,-0.033,102.0,101.0,102.0,13.4,1505.2,324.8,-0.7,1.8,2470.886,13.29,0.018,216.3
2022-08-10T09:49:03,42.805,6.029,0.002,0.0,-0.018,102.0,101.0,101.0,13.4,1505.2,322.1,-0.8,1.8,2470.859,13.29,0.002,90.0
2022-08-10T09:52:03,42.805,6.029,0.012,-0.021,-0.014,104.0,101.0,100.0,13.4,1505.2,323.0,-0.7,1.8,2470.866,13.29,0.024,150.3